AFR025 KLAX-LFPG

Flight info

Callsign AFR025
Flight time N/A
Altitude 33000
Route ORCKA5 LAS Q70 BLIPP Q842 WINEN DCT KU60O DCT KU72Q DCT KU09W DCT 49N100W 5430N09000W/N0490F350 58N080W 5930N07000W DCT RODBO/M083F350 DCT PIDSO DCT 61N050W 61N040W 60N030W 58N020W DCT SUNOT/N0477F350 DCT KESIX DCT REVNU/N0475F370 DCT CON DCT OSGAR DCT MORAG DCT NUCHU L18 MID/N0451F290 Y803 SFD UM605 BIBAX
Aircraft B77W/H-SDE2E3FGHIJ3J5M1P2RWXYZ/LB1D1

Departure

Time 2026-05-07 23:00
Airport Los Angeles International Airport (KLAX)

Arrival

Time N/A
Airport Charles de Gaulle International Airport (LFPG)
Time Latitude Longitude Altitude Speed Heading
2026-05-07 22:16 33.94349 -118.41575 97 ft 0 kts 83°
2026-05-07 22:48 33.94349 -118.41578 97 ft 2 kts 83°
2026-05-07 22:48 33.94346 -118.41609 97 ft 4 kts 83°
2026-05-07 22:48 33.94343 -118.41636 97 ft 3 kts 83°
2026-05-07 22:48 33.94336 -118.41663 96 ft 4 kts 38°
2026-05-07 22:49 33.94315 -118.41671 97 ft 3 kts 353°
2026-05-07 22:49 33.94288 -118.41666 97 ft 4 kts 353°
2026-05-07 22:49 33.94283 -118.41666 97 ft 0 kts 353°
2026-05-07 22:53 33.94311 -118.41670 95 ft 6 kts 353°
2026-05-07 22:53 33.94355 -118.41677 98 ft 9 kts 352°
2026-05-07 22:53 33.94455 -118.41694 99 ft 16 kts 352°
2026-05-07 22:54 33.94564 -118.41711 98 ft 16 kts 353°
2026-05-07 22:54 33.94636 -118.41707 99 ft 8 kts 30°
2026-05-07 22:54 33.94657 -118.41645 100 ft 8 kts 79°
2026-05-07 22:54 33.94677 -118.41583 100 ft 8 kts 44°
2026-05-07 22:55 33.94731 -118.41568 100 ft 8 kts
2026-05-07 22:55 33.94756 -118.41512 101 ft 8 kts 83°
2026-05-07 22:55 33.94765 -118.41440 101 ft 11 kts 76°
2026-05-07 22:55 33.94788 -118.41322 100 ft 14 kts 81°
2026-05-07 22:56 33.94802 -118.41203 102 ft 14 kts 82°
2026-05-07 22:56 33.94815 -118.41085 100 ft 14 kts 83°
2026-05-07 22:56 33.94827 -118.40966 102 ft 14 kts 84°
2026-05-07 22:56 33.94837 -118.40847 99 ft 14 kts 82°
2026-05-07 22:57 33.94852 -118.40729 100 ft 14 kts 81°
2026-05-07 22:57 33.94859 -118.40598 99 ft 19 kts 88°
2026-05-07 22:57 33.94879 -118.40440 101 ft 19 kts 81°
2026-05-07 22:57 33.94898 -118.40282 101 ft 19 kts 84°
2026-05-07 22:58 33.94917 -118.40196 99 ft 0 kts 49°
2026-05-07 22:58 33.94974 -118.40180 104 ft 10 kts 354°
2026-05-07 22:58 33.95007 -118.40201 105 ft 5 kts 311°
2026-05-07 22:59 33.95015 -118.40244 107 ft 5 kts 265°
2026-05-07 22:59 33.95008 -118.40288 105 ft 5 kts 260°
2026-05-07 22:59 33.94993 -118.40417 102 ft 43 kts 262°
2026-05-07 22:59 33.94919 -118.41112 105 ft 122 kts 263°
2026-05-07 23:00 33.94784 -118.42411 125 ft 185 kts 262°
2026-05-07 23:00 33.94621 -118.44027 501 ft 207 kts 260°
2026-05-07 23:00 33.94457 -118.45713 830 ft 195 kts 264°
2026-05-07 23:00 33.94388 -118.47308 714 ft 186 kts 266°
2026-05-07 23:01 33.94370 -118.48866 916 ft 182 kts 268°
2026-05-07 23:01 33.94283 -118.50365 1712 ft 181 kts 265°
2026-05-07 23:01 33.94185 -118.51923 2312 ft 190 kts 267°
2026-05-07 23:01 33.94140 -118.53497 2956 ft 187 kts 271°
2026-05-07 23:02 33.94186 -118.55050 3584 ft 186 kts 274°
2026-05-07 23:02 33.94234 -118.56637 4076 ft 191 kts 269°
2026-05-07 23:02 33.94155 -118.58217 4681 ft 188 kts 264°
2026-05-07 23:02 33.94002 -118.59775 5189 ft 187 kts 266°
2026-05-07 23:03 33.93922 -118.61340 5653 ft 189 kts 269°
2026-05-07 23:03 33.93891 -118.62933 6061 ft 191 kts 270°
2026-05-07 23:03 33.93822 -118.64526 6450 ft 192 kts 262°
2026-05-07 23:03 33.93605 -118.66114 6792 ft 194 kts 262°
2026-05-07 23:04 33.93399 -118.67758 6933 ft 206 kts 263°
2026-05-07 23:04 33.93222 -118.69561 6969 ft 225 kts 272°
2026-05-07 23:04 33.93520 -118.71436 7255 ft 231 kts 295°
2026-05-07 23:04 33.94416 -118.73052 7643 ft 239 kts 317°
2026-05-07 23:05 33.95834 -118.74130 8027 ft 247 kts 341°
2026-05-07 23:05 33.97578 -118.74303 8144 ft 267 kts 12°
2026-05-07 23:05 33.99248 -118.73289 8180 ft 272 kts 42°
2026-05-07 23:05 34.00456 -118.71516 8400 ft 277 kts 61°
2026-05-07 23:06 34.01124 -118.69306 8461 ft 287 kts 79°
2026-05-07 23:06 34.01083 -118.66909 8298 ft 285 kts 104°
2026-05-07 23:06 34.00363 -118.64696 8279 ft 284 kts 118°
2026-05-07 23:06 33.99398 -118.62589 8412 ft 289 kts 121°
2026-05-07 23:07 33.98327 -118.60518 8486 ft 295 kts 122°
2026-05-07 23:07 33.97190 -118.58443 8338 ft 296 kts 126°
2026-05-07 23:07 33.95900 -118.56519 8188 ft 293 kts 130°
2026-05-07 23:07 33.94827 -118.54497 8065 ft 285 kts 111°
2026-05-07 23:08 33.94185 -118.52240 7999 ft 284 kts 105°
2026-05-07 23:08 33.93729 -118.49927 8159 ft 287 kts 99°
2026-05-07 23:08 33.93296 -118.47563 8798 ft 290 kts 104°
2026-05-07 23:08 33.92767 -118.45214 9451 ft 290 kts 96°
2026-05-07 23:09 33.92999 -118.42835 9996 ft 289 kts 62°
2026-05-07 23:09 33.94232 -118.40953 10483 ft 291 kts 39°
2026-05-07 23:09 33.95701 -118.39179 10616 ft 311 kts 54°
2026-05-07 23:09 33.96909 -118.36910 10801 ft 334 kts 56°
2026-05-07 23:10 33.98238 -118.34501 10965 ft 357 kts 54°
2026-05-07 23:10 33.99676 -118.31988 11362 ft 370 kts 54°
2026-05-07 23:10 34.01145 -118.29420 12121 ft 373 kts 55°
2026-05-07 23:10 34.02620 -118.26834 12927 ft 374 kts 55°
2026-05-07 23:11 34.04088 -118.24246 13739 ft 377 kts 55°
2026-05-07 23:11 34.05561 -118.21648 14314 ft 383 kts 55°
2026-05-07 23:11 34.07060 -118.18998 14876 ft 383 kts 55°
2026-05-07 23:11 34.08561 -118.16343 14954 ft 384 kts 55°
2026-05-07 23:12 34.10059 -118.13694 14964 ft 382 kts 55°
2026-05-07 23:12 34.11559 -118.11039 14992 ft 383 kts 55°
2026-05-07 23:12 34.13061 -118.08377 15473 ft 386 kts 55°
2026-05-07 23:12 34.14581 -118.05684 16137 ft 389 kts 55°
2026-05-07 23:13 34.16097 -118.02991 16969 ft 389 kts 55°
2026-05-07 23:13 34.17629 -118.00270 17619 ft 394 kts 55°
2026-05-07 23:13 34.19173 -117.97526 18121 ft 401 kts 55°
2026-05-07 23:13 34.20753 -117.94723 18649 ft 406 kts 55°
2026-05-07 23:14 34.22342 -117.91893 19211 ft 410 kts 55°
2026-05-07 23:14 34.23946 -117.89029 19801 ft 414 kts 55°
2026-05-07 23:14 34.25566 -117.86139 20355 ft 417 kts 55°
2026-05-07 23:14 34.27202 -117.83220 20897 ft 421 kts 55°
2026-05-07 23:15 34.28851 -117.80274 21376 ft 426 kts 55°
2026-05-07 23:15 34.30518 -117.77295 21866 ft 430 kts 55°
2026-05-07 23:15 34.32200 -117.74285 22430 ft 433 kts 55°
2026-05-07 23:15 34.33896 -117.71249 22939 ft 437 kts 54°
2026-05-07 23:16 34.35605 -117.68196 23410 ft 442 kts 54°
2026-05-07 23:16 34.37387 -117.65148 23878 ft 444 kts 53°
2026-05-07 23:16 34.39205 -117.62122 24367 ft 445 kts 52°
2026-05-07 23:16 34.41042 -117.59086 24765 ft 449 kts 52°
2026-05-07 23:17 34.42892 -117.56025 25187 ft 452 kts 53°
2026-05-07 23:17 34.44746 -117.52940 25658 ft 453 kts 53°
2026-05-07 23:17 34.46598 -117.49845 26204 ft 455 kts 52°
2026-05-07 23:17 34.48457 -117.46728 26608 ft 458 kts 53°
2026-05-07 23:18 34.50326 -117.43586 27029 ft 460 kts 53°
2026-05-07 23:18 34.52200 -117.40429 27440 ft 462 kts 53°
2026-05-07 23:18 34.54083 -117.37254 27832 ft 465 kts 53°
2026-05-07 23:18 34.55975 -117.34063 28190 ft 468 kts 53°
2026-05-07 23:19 34.57879 -117.30847 28525 ft 471 kts 53°
2026-05-07 23:19 34.59792 -117.27615 28867 ft 473 kts 53°
2026-05-07 23:19 34.61713 -117.24366 29197 ft 475 kts 53°
2026-05-07 23:19 34.63644 -117.21096 29487 ft 477 kts 53°
2026-05-07 23:20 34.65583 -117.17811 29674 ft 479 kts 53°
2026-05-07 23:20 34.67520 -117.14526 30162 ft 476 kts 53°
2026-05-07 23:20 34.69439 -117.11267 30632 ft 473 kts 53°
2026-05-07 23:20 34.71349 -117.08021 30990 ft 472 kts 53°
2026-05-07 23:21 34.73259 -117.04773 31281 ft 473 kts 53°
2026-05-07 23:21 34.75172 -117.01517 31595 ft 473 kts 53°
2026-05-07 23:21 34.77079 -116.98268 31936 ft 471 kts 53°
2026-05-07 23:21 34.78980 -116.95027 32289 ft 470 kts 53°
2026-05-07 23:22 34.80878 -116.91786 32601 ft 470 kts 53°
2026-05-07 23:22 34.82772 -116.88551 32874 ft 470 kts 53°
2026-05-07 23:22 34.84678 -116.85291 32926 ft 473 kts 53°
2026-05-07 23:23 34.88471 -116.78796 32945 ft 467 kts 53°
2026-05-07 23:23 34.92264 -116.72416 32956 ft 464 kts 50°
2026-05-07 23:24 34.96596 -116.66607 32947 ft 463 kts 45°
2026-05-07 23:24 35.01008 -116.60876 32933 ft 464 kts 46°
2026-05-07 23:25 35.05413 -116.55102 32933 ft 465 kts 46°
2026-05-07 23:25 35.09808 -116.49300 32897 ft 466 kts 46°
2026-05-07 23:26 35.14203 -116.43482 32879 ft 466 kts 46°
2026-05-07 23:26 35.18596 -116.37657 32905 ft 466 kts 46°
2026-05-07 23:27 35.25171 -116.28921 32917 ft 466 kts 46°
2026-05-07 23:27 35.29554 -116.23086 32891 ft 465 kts 46°
2026-05-07 23:28 35.33928 -116.17251 32898 ft 465 kts 46°
2026-05-07 23:28 35.38296 -116.11417 32911 ft 464 kts 46°
2026-05-07 23:29 35.42652 -116.05589 32921 ft 464 kts 46°
2026-05-07 23:29 35.47006 -115.99750 32934 ft 464 kts 46°
2026-05-07 23:30 35.51355 -115.93909 32959 ft 464 kts 46°
2026-05-07 23:30 35.55704 -115.88059 32958 ft 464 kts 46°
2026-05-07 23:31 35.60046 -115.82207 32960 ft 464 kts 46°
2026-05-07 23:31 35.64386 -115.76343 32966 ft 463 kts 46°
2026-05-07 23:32 35.66394 -115.73599 32969 ft 463 kts 46°
2026-05-07 23:32 35.70689 -115.67691 32967 ft 463 kts 47°
2026-05-07 23:33 35.74980 -115.61778 32975 ft 462 kts 47°
2026-05-07 23:33 35.79249 -115.55891 32973 ft 460 kts 47°
2026-05-07 23:34 35.83497 -115.50028 32972 ft 457 kts 46°
2026-05-07 23:34 35.87718 -115.44192 32979 ft 456 kts 46°